{"data":{"norad_id":56541,"epoch":"2026-05-24T10:28:32.716128Z","epoch_age_seconds":122901,"freshness":"FRESH","line1":"1 56541U 23065AQ  26144.43648977  .00000545  00000+0  29349-4 0  9996","line2":"2 56541  43.0034 156.0652 0001620 284.0289  76.0382 15.27570460168057","mean_motion":15.2757046,"eccentricity":0.000162,"inclination_deg":43.0034,"raan_deg":156.0652,"arg_perigee_deg":284.0289,"mean_anomaly_deg":76.0382,"bstar":2.9349e-5,"rev_number":16805,"period_min":94.267337429398,"perigee_km":481.96614560501,"apogee_km":484.18917915562,"semimajor_km":6861.2146623803,"source":"CELESTRAK","updated_at":"2026-05-25T13:38:18.114726Z"}}